Location: Unspecified
(64.9000°N, 0.0000°E)
Time: 15:19:41
(UTC+00:00)

Transit 2A Rocket - Pass Details

Date: 26 June 2019
Orbit: 590 x 913 km, 66.7° (Epoch: 22 August)

Event Time Altitude Azimuth Distance (km) Brightness Sun altitude
Rises 07:46:09 0° 148° (SSE) 3,530 9.0 31.9°
Reaches altitude 10° 07:51:25 10° 110° (ESE) 2,551 9.2 32.5°
Maximum altitude 07:52:15 10° 102° (ESE) 2,521 9.2 32.6°
Drops below altitude 10° 07:53:05 10° 94° (E) 2,533 9.1 32.6°
Sets 07:58:10 0° 55° (NE) 3,397 8.8 33.2°
